This is the latest recevied weather packets stored in our database for station/object APPOWX. If no packets are shown the sender has not sent any weather packets the latest 10 day(s).
| Time | Temp. | Humidity | Pressure | Rain* | Wind** | Luminosity | Snow |
|---|---|---|---|---|---|---|---|
| 1777133895 | 23.89° C | 60% | 1012 hPa | 0 mm | - | - | - |
| 1777133835 | 24.44° C | 58% | 1012.1 hPa | 0 mm | - | - | - |
| 1777133775 | 23.89° C | 59% | 1012.2 hPa | 0 mm | - | - | - |
| 1777133715 | 23.89° C | 58% | 1012.3 hPa | 0 mm | - | - | - |
| 1777133655 | 23.89° C | 60% | 1012.2 hPa | 0 mm | - | - | - |
| 1777133595 | 23.33° C | 60% | 1012.2 hPa | 0 mm | - | - | - |
| 1777133534 | 22.78° C | 60% | 1012.3 hPa | 0 mm | - | - | - |
| 1777133474 | 22.78° C | 62% | 1012.3 hPa | 0 mm | - | - | - |
| 1777133414 | 23.33° C | 62% | 1012.5 hPa | 0 mm | - | - | - |
| 1777133354 | 23.33° C | 61% | 1012.4 hPa | 0 mm | - | - | - |
| 1777133294 | 23.89° C | 61% | 1012.4 hPa | 0 mm | - | - | - |
| 1777133234 | 24.44° C | 59% | 1012.4 hPa | 0 mm | - | - | - |
| 1777133174 | 24.44° C | 58% | 1012.3 hPa | 0 mm | - | - | - |
| 1777133114 | 23.89° C | 59% | 1012.5 hPa | 0 mm | - | - | - |
| 1777133054 | 23.89° C | 58% | 1012.4 hPa | 0 mm | - | - | - |
| 1777132993 | 23.89° C | 58% | 1012.5 hPa | 0 mm | - | - | - |
| 1777132934 | 23.89° C | 57% | 1012.5 hPa | 0 mm | - | - | - |
| 1777132874 | 23.89° C | 60% | 1012.4 hPa | 0 mm | - | - | - |
| 1777132814 | 23.33° C | 61% | 1012.5 hPa | 0 mm | - | - | - |
| 1777132753 | 23.33° C | 60% | 1012.5 hPa | 0 mm | - | - | - |
| 1777132693 | 23.33° C | 65% | 1012.4 hPa | 0 mm | - | - | - |
| 1777132633 | 23.33° C | 62% | 1012.3 hPa | 0 mm | - | - | - |
| 1777132573 | 23.33° C | 58% | 1012.5 hPa | 0 mm | - | - | - |
| 1777132514 | 22.78° C | 62% | 1012.5 hPa | 0 mm | - | - | - |
| 1777132453 | 22.22° C | 63% | 1012.5 hPa | 0 mm | - | - | - |
* Rain latest hour (hover to see other rain measurements)
** Current wind speed in m/s (hover to see current wind gust speed)